﻿測定場所 (Monitoring sites),日付 (Measurement date),時間 (Measurement time),線量率 最大値 (max) μGy/h,線量率 最小値 (min) μGy/h,線量率 平均値 (average) μGy/h,
調布 (Chofu),2017-04-02,23:01～24:00,0.0299,0.0264,0.0285,
調布 (Chofu),2017-04-02,22:01～23:00,0.0307,0.0263,0.0286,
調布 (Chofu),2017-04-02,21:01～22:00,0.0299,0.0270,0.0284,
調布 (Chofu),2017-04-02,20:01～21:00,0.0306,0.0261,0.0285,
調布 (Chofu),2017-04-02,19:01～20:00,0.0299,0.0259,0.0281,
調布 (Chofu),2017-04-02,18:01～19:00,0.0306,0.0266,0.0285,
調布 (Chofu),2017-04-02,17:01～18:00,0.0299,0.0267,0.0285,
調布 (Chofu),2017-04-02,16:01～17:00,0.0309,0.0259,0.0285,
調布 (Chofu),2017-04-02,15:01～16:00,0.0310,0.0270,0.0286,
調布 (Chofu),2017-04-02,14:01～15:00,0.0311,0.0270,0.0286,
調布 (Chofu),2017-04-02,13:01～14:00,0.0312,0.0267,0.0287,
調布 (Chofu),2017-04-02,12:01～13:00,0.0311,0.0266,0.0287,
調布 (Chofu),2017-04-02,11:01～12:00,0.0305,0.0270,0.0287,
調布 (Chofu),2017-04-02,10:01～11:00,0.0301,0.0267,0.0284,
調布 (Chofu),2017-04-02,09:01～10:00,0.0311,0.0271,0.0287,
調布 (Chofu),2017-04-02,08:01～09:00,0.0302,0.0273,0.0287,
調布 (Chofu),2017-04-02,07:01～08:00,0.0301,0.0266,0.0286,
調布 (Chofu),2017-04-02,06:01～07:00,0.0300,0.0264,0.0286,
調布 (Chofu),2017-04-02,05:01～06:00,0.0321,0.0269,0.0286,
調布 (Chofu),2017-04-02,04:01～05:00,0.0311,0.0265,0.0287,
調布 (Chofu),2017-04-02,03:01～04:00,0.0307,0.0264,0.0285,
調布 (Chofu),2017-04-02,02:01～03:00,0.0306,0.0261,0.0284,
調布 (Chofu),2017-04-02,01:01～02:00,0.0304,0.0269,0.0283,
調布 (Chofu),2017-04-02,00:01～01:00,0.0302,0.0262,0.0284,
調布 (Chofu),2017-04-01,23:01～24:00,0.0311,0.0261,0.0283,
調布 (Chofu),2017-04-01,22:01～23:00,0.0297,0.0261,0.0282,
調布 (Chofu),2017-04-01,21:01～22:00,0.0306,0.0261,0.0280,
調布 (Chofu),2017-04-01,20:01～21:00,0.0303,0.0264,0.0283,
調布 (Chofu),2017-04-01,19:01～20:00,0.0301,0.0256,0.0284,
調布 (Chofu),2017-04-01,18:01～19:00,0.0301,0.0267,0.0283,
調布 (Chofu),2017-04-01,17:01～18:00,0.0313,0.0273,0.0291,
調布 (Chofu),2017-04-01,16:01～17:00,0.0314,0.0268,0.0291,
調布 (Chofu),2017-04-01,15:01～16:00,0.0307,0.0274,0.0291,
調布 (Chofu),2017-04-01,14:01～15:00,0.0304,0.0265,0.0286,
調布 (Chofu),2017-04-01,13:01～14:00,0.0311,0.0275,0.0291,
調布 (Chofu),2017-04-01,12:01～13:00,0.0320,0.0273,0.0295,
調布 (Chofu),2017-04-01,11:01～12:00,0.0329,0.0282,0.0308,
調布 (Chofu),2017-04-01,10:01～11:00,0.0340,0.0296,0.0319,
調布 (Chofu),2017-04-01,09:01～10:00,0.0360,0.0316,0.0339,
調布 (Chofu),2017-04-01,08:01～09:00,0.0355,0.0294,0.0328,
調布 (Chofu),2017-04-01,07:01～08:00,0.0361,0.0297,0.0321,
調布 (Chofu),2017-04-01,06:01～07:00,0.0358,0.0307,0.0336,
調布 (Chofu),2017-04-01,05:01～06:00,0.0368,0.0328,0.0347,
調布 (Chofu),2017-04-01,04:01～05:00,0.0360,0.0312,0.0338,
調布 (Chofu),2017-04-01,03:01～04:00,0.0369,0.0323,0.0344,
調布 (Chofu),2017-04-01,02:01～03:00,0.0368,0.0330,0.0351,
調布 (Chofu),2017-04-01,01:01～02:00,0.0378,0.0334,0.0355,
調布 (Chofu),2017-04-01,00:01～01:00,0.0403,0.0339,0.0361,
調布 (Chofu),2017-03-31,23:01～24:00,0.0388,0.0347,0.0364,
調布 (Chofu),2017-03-31,22:01～23:00,0.0412,0.0341,0.0371,
調布 (Chofu),2017-03-31,21:01～22:00,0.0367,0.0330,0.0351,
調布 (Chofu),2017-03-31,20:01～21:00,0.0381,0.0335,0.0355,
調布 (Chofu),2017-03-31,19:01～20:00,0.0421,0.0351,0.0377,
調布 (Chofu),2017-03-31,18:01～19:00,0.0463,0.0370,0.0413,
調布 (Chofu),2017-03-31,17:01～18:00,0.0460,0.0373,0.0411,
調布 (Chofu),2017-03-31,16:01～17:00,0.0442,0.0344,0.0381,
調布 (Chofu),2017-03-31,15:01～16:00,0.0368,0.0295,0.0330,
調布 (Chofu),2017-03-31,14:01～15:00,0.0322,0.0258,0.0296,
調布 (Chofu),2017-03-31,13:01～14:00,0.0313,0.0268,0.0290,
調布 (Chofu),2017-03-31,12:01～13:00,0.0311,0.0266,0.0289,
調布 (Chofu),2017-03-31,11:01～12:00,0.0305,0.0267,0.0290,
調布 (Chofu),2017-03-31,10:01～11:00,0.0312,0.0266,0.0290,
調布 (Chofu),2017-03-31,09:01～10:00,0.0308,0.0270,0.0290,
調布 (Chofu),2017-03-31,08:01～09:00,0.0310,0.0268,0.0291,
調布 (Chofu),2017-03-31,07:01～08:00,0.0317,0.0271,0.0293,
調布 (Chofu),2017-03-31,06:01～07:00,0.0314,0.0276,0.0295,
調布 (Chofu),2017-03-31,05:01～06:00,0.0316,0.0276,0.0293,
調布 (Chofu),2017-03-31,04:01～05:00,0.0316,0.0266,0.0294,
調布 (Chofu),2017-03-31,03:01～04:00,0.0313,0.0278,0.0293,
調布 (Chofu),2017-03-31,02:01～03:00,0.0310,0.0278,0.0293,
調布 (Chofu),2017-03-31,01:01～02:00,0.0319,0.0271,0.0291,
調布 (Chofu),2017-03-31,00:01～01:00,0.0311,0.0270,0.0293,
調布 (Chofu),2017-03-30,23:01～24:00,0.0311,0.0272,0.0292,
調布 (Chofu),2017-03-30,22:01～23:00,0.0307,0.0276,0.0291,
調布 (Chofu),2017-03-30,21:01～22:00,0.0322,0.0273,0.0293,
調布 (Chofu),2017-03-30,20:01～21:00,0.0311,0.0274,0.0292,
調布 (Chofu),2017-03-30,19:01～20:00,0.0313,0.0274,0.0289,
調布 (Chofu),2017-03-30,18:01～19:00,0.0310,0.0274,0.0289,
調布 (Chofu),2017-03-30,17:01～18:00,0.0316,0.0273,0.0291,
調布 (Chofu),2017-03-30,16:01～17:00,0.0319,0.0266,0.0289,
調布 (Chofu),2017-03-30,15:01～16:00,0.0311,0.0270,0.0290,
調布 (Chofu),2017-03-30,14:01～15:00,0.0309,0.0269,0.0288,
調布 (Chofu),2017-03-30,13:01～14:00,0.0304,0.0273,0.0291,
調布 (Chofu),2017-03-30,12:01～13:00,0.0315,0.0273,0.0291,
調布 (Chofu),2017-03-30,11:01～12:00,0.0318,0.0275,0.0292,
調布 (Chofu),2017-03-30,10:01～11:00,0.0309,0.0278,0.0293,
調布 (Chofu),2017-03-30,09:01～10:00,0.0309,0.0267,0.0295,
調布 (Chofu),2017-03-30,08:01～09:00,0.0327,0.0282,0.0302,
調布 (Chofu),2017-03-30,07:01～08:00,0.0329,0.0288,0.0309,
調布 (Chofu),2017-03-30,06:01～07:00,0.0325,0.0282,0.0306,
調布 (Chofu),2017-03-30,05:01～06:00,0.0330,0.0282,0.0299,
調布 (Chofu),2017-03-30,04:01～05:00,0.0317,0.0282,0.0297,
調布 (Chofu),2017-03-30,03:01～04:00,0.0317,0.0278,0.0297,
調布 (Chofu),2017-03-30,02:01～03:00,0.0318,0.0279,0.0296,
調布 (Chofu),2017-03-30,01:01～02:00,0.0323,0.0285,0.0301,
調布 (Chofu),2017-03-30,00:01～01:00,0.0324,0.0280,0.0297,
調布 (Chofu),2017-03-29,23:01～24:00,0.0305,0.0270,0.0288,
調布 (Chofu),2017-03-29,22:01～23:00,0.0312,0.0272,0.0287,
調布 (Chofu),2017-03-29,21:01～22:00,0.0301,0.0270,0.0284,
調布 (Chofu),2017-03-29,20:01～21:00,0.0300,0.0261,0.0283,
調布 (Chofu),2017-03-29,19:01～20:00,0.0299,0.0270,0.0284,
調布 (Chofu),2017-03-29,18:01～19:00,0.0305,0.0269,0.0286,
調布 (Chofu),2017-03-29,17:01～18:00,0.0303,0.0268,0.0284,
調布 (Chofu),2017-03-29,16:01～17:00,0.0301,0.0270,0.0287,
調布 (Chofu),2017-03-29,15:01～16:00,0.0306,0.0267,0.0285,
調布 (Chofu),2017-03-29,14:01～15:00,0.0302,0.0269,0.0286,
調布 (Chofu),2017-03-29,13:01～14:00,0.0306,0.0255,0.0286,
調布 (Chofu),2017-03-29,12:01～13:00,0.0311,0.0261,0.0288,
調布 (Chofu),2017-03-29,11:01～12:00,0.0315,0.0269,0.0289,
調布 (Chofu),2017-03-29,10:01～11:00,0.0313,0.0262,0.0291,
調布 (Chofu),2017-03-29,09:01～10:00,0.0316,0.0267,0.0294,
調布 (Chofu),2017-03-29,08:01～09:00,0.0320,0.0275,0.0292,
調布 (Chofu),2017-03-29,07:01～08:00,0.0310,0.0270,0.0292,
調布 (Chofu),2017-03-29,06:01～07:00,0.0307,0.0271,0.0290,
調布 (Chofu),2017-03-29,05:01～06:00,0.0308,0.0273,0.0292,
調布 (Chofu),2017-03-29,04:01～05:00,0.0311,0.0263,0.0289,
調布 (Chofu),2017-03-29,03:01～04:00,0.0314,0.0269,0.0287,
調布 (Chofu),2017-03-29,02:01～03:00,0.0302,0.0262,0.0286,
調布 (Chofu),2017-03-29,01:01～02:00,0.0314,0.0271,0.0290,
調布 (Chofu),2017-03-29,00:01～01:00,0.0318,0.0276,0.0294,
調布 (Chofu),2017-03-28,23:01～24:00,0.0323,0.0269,0.0290,
調布 (Chofu),2017-03-28,22:01～23:00,0.0306,0.0263,0.0287,
調布 (Chofu),2017-03-28,21:01～22:00,0.0307,0.0270,0.0288,
調布 (Chofu),2017-03-28,20:01～21:00,0.0306,0.0267,0.0286,
調布 (Chofu),2017-03-28,19:01～20:00,0.0309,0.0268,0.0285,
調布 (Chofu),2017-03-28,18:01～19:00,0.0321,0.0274,0.0292,
調布 (Chofu),2017-03-28,17:01～18:00,0.0315,0.0274,0.0293,
調布 (Chofu),2017-03-28,16:01～17:00,0.0308,0.0268,0.0287,
調布 (Chofu),2017-03-28,15:01～16:00,0.0303,0.0268,0.0283,
調布 (Chofu),2017-03-28,14:01～15:00,0.0299,0.0264,0.0282,
調布 (Chofu),2017-03-28,13:01～14:00,0.0305,0.0257,0.0284,
調布 (Chofu),2017-03-28,12:01～13:00,0.0315,0.0267,0.0285,
調布 (Chofu),2017-03-28,11:01～12:00,0.0301,0.0265,0.0284,
調布 (Chofu),2017-03-28,10:01～11:00,0.0301,0.0266,0.0284,
調布 (Chofu),2017-03-28,09:01～10:00,0.0299,0.0267,0.0283,
調布 (Chofu),2017-03-28,08:01～09:00,0.0304,0.0259,0.0284,
調布 (Chofu),2017-03-28,07:01～08:00,0.0316,0.0266,0.0287,
調布 (Chofu),2017-03-28,06:01～07:00,0.0308,0.0267,0.0285,
調布 (Chofu),2017-03-28,05:01～06:00,0.0305,0.0270,0.0288,
調布 (Chofu),2017-03-28,04:01～05:00,0.0307,0.0267,0.0287,
調布 (Chofu),2017-03-28,03:01～04:00,0.0308,0.0267,0.0285,
調布 (Chofu),2017-03-28,02:01～03:00,0.0312,0.0268,0.0290,
調布 (Chofu),2017-03-28,01:01～02:00,0.0308,0.0272,0.0290,
調布 (Chofu),2017-03-28,00:01～01:00,0.0304,0.0269,0.0285,
調布 (Chofu),2017-03-27,23:01～24:00,0.0310,0.0265,0.0285,
調布 (Chofu),2017-03-27,22:01～23:00,0.0299,0.0257,0.0281,
調布 (Chofu),2017-03-27,21:01～22:00,0.0305,0.0262,0.0284,
調布 (Chofu),2017-03-27,20:01～21:00,0.0301,0.0263,0.0280,
調布 (Chofu),2017-03-27,19:01～20:00,0.0300,0.0260,0.0281,
調布 (Chofu),2017-03-27,18:01～19:00,0.0301,0.0261,0.0282,
調布 (Chofu),2017-03-27,17:01～18:00,0.0304,0.0271,0.0285,
調布 (Chofu),2017-03-27,16:01～17:00,0.0306,0.0266,0.0288,
調布 (Chofu),2017-03-27,15:01～16:00,0.0312,0.0272,0.0293,
調布 (Chofu),2017-03-27,14:01～15:00,0.0330,0.0288,0.0302,
調布 (Chofu),2017-03-27,13:01～14:00,0.0355,0.0293,0.0327,
調布 (Chofu),2017-03-27,12:01～13:00,0.0350,0.0297,0.0325,
調布 (Chofu),2017-03-27,11:01～12:00,0.0332,0.0297,0.0311,
調布 (Chofu),2017-03-27,10:01～11:00,0.0346,0.0291,0.0321,
調布 (Chofu),2017-03-27,09:01～10:00,0.0374,0.0322,0.0343,
調布 (Chofu),2017-03-27,08:01～09:00,0.0400,0.0328,0.0360,
調布 (Chofu),2017-03-27,07:01～08:00,0.0421,0.0356,0.0385,
調布 (Chofu),2017-03-27,06:01～07:00,0.0449,0.0373,0.0408,
調布 (Chofu),2017-03-27,05:01～06:00,0.0472,0.0391,0.0438,
調布 (Chofu),2017-03-27,04:01～05:00,0.0468,0.0391,0.0430,
調布 (Chofu),2017-03-27,03:01～04:00,0.0424,0.0365,0.0394,
調布 (Chofu),2017-03-27,02:01～03:00,0.0423,0.0355,0.0388,
調布 (Chofu),2017-03-27,01:01～02:00,0.0411,0.0343,0.0374,
調布 (Chofu),2017-03-27,00:01～01:00,0.0410,0.0333,0.0365,
